,,Stat1,,Stat2,,Stat3,,Stat4,,Wind1,,Wind1,
time,status,PR1M_SUM,status,RH1M_AVG,status,SR1M_AVG,status,TA1M_AVG,status,W1dAve1m,status,W1sAve1m,
1999-09-21, 00:00:01,VALID,0,VALID,99.8438,VALID,-0.0509425,VALID,20.2345,VALID,291,VALID,0.372852,
1999-09-21, 00:01:00,VALID,0,VALID,99.8464,VALID,-0.0339617,VALID,20.2415,VALID,304,VALID,0.479367,
1999-09-21, 00:02:00,VALID,0,VALID,99.8438,VALID,-0.0339617,VALID,20.2146,VALID,302,VALID,0.496484,
1999-09-21, 00:03:00,VALID,0,VALID,99.8502,VALID,-0.0169808,VALID,20.2156,VALID,309,VALID,0.391036,
1999-09-21, 00:04:00,VALID,0,VALID,99.8477,VALID,-0.0509425,VALID,20.196,VALID,302,VALID,0.597039,
1999-09-21, 00:05:00,VALID,0,VALID,99.8438,VALID,-0.0339617,VALID,20.1835,VALID,301,VALID,0.696752,
1999-09-21, 00:06:00,VALID,0,VALID,99.8655,VALID,-0.0339617,VALID,20.1641,VALID,299,VALID,0.392314,
1999-09-21, 00:07:00,VALID,0,VALID,99.8693,VALID,-0.0339617,VALID,20.1477,VALID,313,VALID,0.499789,
1999-09-21, 00:08:00,VALID,0,VALID,99.8871,VALID,-0.0169808,VALID,20.1313,VALID,310,VALID,0.814453,
1999-09-21, 00:09:00,VALID,0,VALID,99.8655,VALID,-0.0509425,VALID,20.1057,VALID,312,VALID,1.08164,
1999-09-21, 00:10:00,VALID,0,VALID,99.9036,VALID,0,VALID,20.086,VALID,288,VALID,0.604567,
1999-09-21, 00:11:00,VALID,0,VALID,99.9316,VALID,-0.0169808,VALID,20.0932,VALID,299,VALID,0.824324,
1999-09-21, 00:12:00,VALID,0,VALID,99.9265,VALID,-0.0509425,VALID,20.0706,VALID,313,VALID,0.867578,
1999-09-21, 00:13:00,VALID,0,VALID,99.9278,VALID,-0.0169808,VALID,20.0475,VALID,313,VALID,0.812109,
1999-09-21, 00:14:00,VALID,0,VALID,99.9608,VALID,-0.0509425,VALID,20.0412,VALID,316,VALID,0.793586,
1999-09-21, 00:15:00,VALID,0,VALID,99.9608,VALID,-0.0849042,VALID,20.0216,VALID,312,VALID,0.682075,
1999-09-21, 00:16:00,VALID,0,VALID,99.986,VALID,-0.0339617,VALID,20.0151,VALID,302,VALID,0.780816,
1999-09-21, 00:17:00,VALID,0,VALID,99.9825,VALID,-0.0679233,VALID,20.0086,VALID,308,VALID,0.603824,
1999-09-21, 00:18:00,VALID,0,VALID,99.9822,VALID,-0.0509425,VALID,19.9833,VALID,305,VALID,0.821752,
1999-09-21, 00:19:00,VALID,0,VALID,100,VALID,-0.0339617,VALID,19.9895,VALID,293,VALID,0.58636,
1999-09-21, 00:20:00,VALID,0,VALID,100,VALID,-0.0169808,VALID,19.9825,VALID,289,VALID,0.504317,
1999-09-21, 00:21:00,VALID,0,VALID,100,VALID,-0.0509425,VALID,19.9766,VALID,273,VALID,0.67866,
1999-09-21, 00:22:00,VALID,0,VALID,100,VALID,-0.0339617,VALID,19.9629,VALID,306,VALID,0.814844,
1999-09-21, 00:23:00,VALID,0,VALID,100,VALID,-0.0339617,VALID,19.9696,VALID,286,VALID,0.473157,
1999-09-21, 00:24:00,VALID,0,VALID,100,VALID,-0.0169808,VALID,19.9569,VALID,297,VALID,0.547903,
1999-09-21, 00:25:00,VALID,0,VALID,100,VALID,-0.0679233,VALID,19.9442,VALID,306,VALID,0.674479,
1999-09-21, 00:26:00,VALID,0,VALID,100,VALID,-0.0169808,VALID,19.9248,VALID,307,VALID,0.467882,
1999-09-21, 00:27:00,VALID,0,VALID,100,VALID,-0.0339617,VALID,19.9181,VALID,326,VALID,0.833203,
1999-09-21, 00:28:00,VALID,0,VALID,100,VALID,-0.0339617,VALID,19.8925,VALID,326,VALID,0.904492,
1999-09-21, 00:29:00,VALID,0,VALID,100,VALID,-0.0169808,VALID,19.8925,VALID,317,VALID,0.704153,
1999-09-21, 00:30:00,VALID,0,VALID,100,VALID,-0.0849042,VALID,19.8897,VALID,314,VALID,0.709635,
1999-09-21, 00:31:00,VALID,0,VALID,100,VALID,-0.0509425,VALID,19.8863,VALID,320,VALID,0.753255,
1999-09-21, 00:32:00,VALID,0,VALID,100,VALID,-0.101885,VALID,19.8895,VALID,317,VALID,0.482319,
1999-09-21, 00:33:01,VALID,0,VALID,100,VALID,-0.0509425,VALID,19.886,VALID,297,VALID,0.225329,
1999-09-21, 00:34:00,VALID,0,VALID,100,VALID,-0.0679233,VALID,19.886,VALID,318,VALID,0.670819,
1999-09-21, 00:35:00,VALID,0,VALID,100,VALID,-0.0679233,VALID,19.8571,VALID,326,VALID,0.835526,
1999-09-21, 00:36:00,VALID,0,VALID,100,VALID,-0.101885,VALID,19.8343,VALID,312,VALID,0.978413,
1999-09-21, 00:37:00,VALID,0,VALID,100,VALID,-0.0509425,VALID,19.831,VALID,317,VALID,0.459961,
1999-09-21, 00:38:00,VALID,0,VALID,100,VALID,-0.0339617,VALID,19.8402,VALID,320,VALID,0.445112,
1999-09-21, 00:39:00,VALID,0,VALID,100,VALID,-0.0509425,VALID,19.8569,VALID,291,VALID,0.330798,
1999-09-21, 00:40:00,VALID,0,VALID,100,VALID,-0.0679233,VALID,19.8504,VALID,296,VALID,0.309896,
1999-09-21, 00:41:00,VALID,0,VALID,100,VALID,-0.0679233,VALID,19.8733,VALID,270,VALID,0.117188,
1999-09-21, 00:42:00,VALID,0,VALID,100,VALID,-0.0339617,VALID,19.8795,VALID,269,VALID,0,
1999-09-21, 00:43:01,VALID,0,VALID,100,VALID,-0.0169808,VALID,19.8955,VALID,269,VALID,0.00117188,
1999-09-21, 00:44:01,VALID,0,VALID,100,VALID,-0.0169808,VALID,19.9119,VALID,269,VALID,0,
1999-09-21, 00:45:00,VALID,0,VALID,100,VALID,-0.0509425,VALID,19.9345,VALID,184,VALID,0.0236545,
1999-09-21, 00:46:00,VALID,0,VALID,100,VALID,-0.0339617,VALID,19.9701,VALID,170,VALID,0.0225694,
1999-09-21, 00:47:00,VALID,0,VALID,100,VALID,-0.0339617,VALID,19.9664,VALID,139,VALID,0.17352,
1999-09-21, 00:48:00,VALID,0,VALID,100,VALID,-0.0679233,VALID,19.9412,VALID,62,VALID,0.22574,
1999-09-21, 00:49:00,VALID,0,VALID,100,VALID,-0.0679233,VALID,19.9121,VALID,345,VALID,0.298353,
1999-09-21, 00:50:00,VALID,0,VALID,100,VALID,-0.0509425,VALID,19.9186,VALID,313,VALID,0.116982,
1999-09-21, 00:51:00,VALID,0,VALID,100,VALID,-0.0509425,VALID,19.9248,VALID,266,VALID,0.00740132,
1999-09-21, 00:52:00,VALID,0,VALID,100,VALID,-0.0509425,VALID,19.9243,VALID,238,VALID,0,
1999-09-21, 00:53:00,VALID,0,VALID,100,VALID,-0.101885,VALID,19.941,VALID,279,VALID,0.0494792,
1999-09-21, 00:54:00,VALID,0,VALID,100,VALID,-0.0679233,VALID,19.896,VALID,305,VALID,0.472039,
1999-09-21, 00:55:01,VALID,0,VALID,100,VALID,-0.0849042,VALID,19.8771,VALID,298,VALID,0.255809,
1999-09-21, 00:56:00,VALID,0,VALID,100,VALID,-0.101885,VALID,19.8768,VALID,295,VALID,0.213759,
1999-09-21, 00:57:00,VALID,0,VALID,100,VALID,-0.0679233,VALID,19.8576,VALID,299,VALID,0.775781,
1999-09-21, 00:58:00,VALID,0,VALID,100,VALID,-0.0339617,VALID,19.8437,VALID,291,VALID,0.522656,
1999-09-21, 00:59:00,VALID,0,VALID,100,VALID,0.0509425,VALID,19.826,VALID,298,VALID,0.379729,
1999-09-21, 01:00:00,VALID,0,VALID,100,VALID,0.0169808,VALID,19.8106,VALID,284,VALID,0.139757,
1999-09-21, 01:01:00,VALID,0,VALID,100,VALID,0.0339617,VALID,19.7979,VALID,288,VALID,0.205946,
1999-09-21, 01:02:00,VALID,0,VALID,100,VALID,0,VALID,19.781,VALID,290,VALID,0.485609,
1999-09-21, 01:03:00,VALID,0,VALID,100,VALID,0,VALID,19.7818,VALID,278,VALID,0.23972,
1999-09-21, 01:04:00,VALID,0,VALID,100,VALID,0.0169808,VALID,19.7815,VALID,260,VALID,0.658361,
1999-09-21, 01:05:01,VALID,0,VALID,100,VALID,0.0339617,VALID,19.7656,VALID,257,VALID,0.487048,
1999-09-21, 01:06:00,VALID,0,VALID,100,VALID,0.0169808,VALID,19.7589,VALID,259,VALID,0.653988,
1999-09-21, 01:07:00,VALID,0,VALID,100,VALID,0.0169808,VALID,19.7561,VALID,263,VALID,0.541016,
1999-09-21, 01:08:00,VALID,0,VALID,100,VALID,0.0339617,VALID,19.7457,VALID,263,VALID,0.598157,
1999-09-21, 01:09:00,VALID,0,VALID,100,VALID,0.0509425,VALID,19.7392,VALID,260,VALID,0.452714,
1999-09-21, 01:10:00,VALID,0,VALID,100,VALID,0.0509425,VALID,19.7228,VALID,253,VALID,0.261418,
1999-09-21, 01:11:00,VALID,0,VALID,100,VALID,0.0169808,VALID,19.7231,VALID,215,VALID,0.40191,
1999-09-21, 01:12:00,VALID,0,VALID,100,VALID,0.0849042,VALID,19.7134,VALID,204,VALID,0.404102,
1999-09-21, 01:13:00,VALID,0,VALID,100,VALID,0.0169808,VALID,19.7168,VALID,164,VALID,0.447266,
1999-09-21, 01:14:00,VALID,0,VALID,100,VALID,-0.0679233,VALID,19.7178,VALID,175,VALID,0.297286,
1999-09-21, 01:15:00,VALID,0,VALID,100,VALID,-0.0339617,VALID,19.7377,VALID,200,VALID,0.0299479,
1999-09-21, 01:16:00,VALID,0,VALID,100,VALID,-0.0509425,VALID,19.7405,VALID,163,VALID,0,
1999-09-21, 01:17:01,VALID,0,VALID,100,VALID,-0.0509425,VALID,19.7668,VALID,139,VALID,0,
1999-09-21, 01:18:00,VALID,0,VALID,100,VALID,-0.0509425,VALID,19.7701,VALID,104,VALID,0,
1999-09-21, 01:19:00,VALID,0,VALID,100,VALID,-0.0169808,VALID,19.789,VALID,104,VALID,0,
1999-09-21, 01:20:00,VALID,0,VALID,100,VALID,-0.0339617,VALID,19.8081,VALID,105,VALID,0,
1999-09-21, 01:21:00,VALID,0,VALID,100,VALID,-0.0679233,VALID,19.8151,VALID,107,VALID,0,
1999-09-21, 01:22:00,VALID,0,VALID,100,VALID,-0.0509425,VALID,19.8119,VALID,166,VALID,0,
1999-09-21, 01:23:00,VALID,0,VALID,100,VALID,-0.0849042,VALID,19.7895,VALID,207,VALID,0,
1999-09-21, 01:24:00,VALID,0,VALID,100,VALID,-0.0509425,VALID,19.7761,VALID,241,VALID,0,
1999-09-21, 01:25:00,VALID,0,VALID,100,VALID,-0.0509425,VALID,19.7566,VALID,242,VALID,0,
1999-09-21, 01:26:00,VALID,0,VALID,100,VALID,-0.0679233,VALID,19.7343,VALID,233,VALID,0,
1999-09-21, 01:27:01,VALID,0,VALID,100,VALID,-0.0849042,VALID,19.7054,VALID,221,VALID,0.586523,
1999-09-21, 01:28:01,VALID,0,VALID,100,VALID,-0.0509425,VALID,19.6848,VALID,198,VALID,0.603906,
1999-09-21, 01:29:00,VALID,0,VALID,100,VALID,0.0169808,VALID,19.6584,VALID,200,VALID,0.61102,
1999-09-21, 01:30:00,VALID,0,VALID,100,VALID,0.0509425,VALID,19.6325,VALID,183,VALID,0.737847,
1999-09-21, 01:31:00,VALID,0,VALID,100,VALID,0.0339617,VALID,19.6236,VALID,178,VALID,0.581814,
1999-09-21, 01:32:00,VALID,0,VALID,100,VALID,0,VALID,19.5975,VALID,204,VALID,0.57648,
1999-09-21, 01:33:00,VALID,0,VALID,100,VALID,0.0339617,VALID,19.591,VALID,223,VALID,0.927426,
1999-09-21, 01:34:00,VALID,0,VALID,100,VALID,0.0509425,VALID,19.5713,VALID,223,VALID,0.79413,
1999-09-21, 01:35:00,VALID,0,VALID,100,VALID,0.0169808,VALID,19.5688,VALID,211,VALID,0.808799,
1999-09-21, 01:36:00,VALID,0,VALID,100,VALID,0.0339617,VALID,19.5522,VALID,205,VALID,0.829564,
1999-09-21, 01:37:00,VALID,0,VALID,100,VALID,0,VALID,19.545,VALID,222,VALID,0.731055,
1999-09-21, 01:38:00,VALID,0,VALID,100,VALID,0,VALID,19.5582,VALID,222,VALID,0.420673,
1999-09-21, 01:39:01,VALID,0,VALID,100,VALID,0.0169808,VALID,19.5716,VALID,214,VALID,0.480674,
1999-09-21, 01:40:00,VALID,0,VALID,100,VALID,0.0169808,VALID,19.5584,VALID,195,VALID,0.820513,
1999-09-21, 01:41:00,VALID,0,VALID,100,VALID,0.0339617,VALID,19.5582,VALID,211,VALID,0.688151,
1999-09-21, 01:42:00,VALID,0,VALID,100,VALID,0,VALID,19.5554,VALID,235,VALID,0.602539,
1999-09-21, 01:43:00,VALID,0,VALID,100,VALID,0.0169808,VALID,19.5654,VALID,222,VALID,0.511914,
1999-09-21, 01:44:00,VALID,0,VALID,100,VALID,0.0509425,VALID,19.5651,VALID,248,VALID,1.01398,
1999-09-21, 01:45:00,VALID,0,VALID,100,VALID,0.0169808,VALID,19.5619,VALID,195,VALID,0.54145,
1999-09-21, 01:46:00,VALID,0,VALID,100,VALID,0.0169808,VALID,19.5813,VALID,227,VALID,0.710503,
1999-09-21, 01:47:00,VALID,0,VALID,100,VALID,0.0509425,VALID,19.5746,VALID,214,VALID,0.589227,
1999-09-21, 01:48:01,VALID,0,VALID,100,VALID,0.0509425,VALID,19.5579,VALID,206,VALID,0.566612,
1999-09-21, 01:49:01,VALID,0,VALID,100,VALID,0.0509425,VALID,19.5783,VALID,233,VALID,0.444046,
1999-09-21, 01:50:01,VALID,0,VALID,100,VALID,0.0339617,VALID,19.5679,VALID,237,VALID,1.09581,
1999-09-21, 01:51:00,VALID,0,VALID,100,VALID,0.0339617,VALID,19.5557,VALID,221,VALID,0.908923,
1999-09-21, 01:52:00,VALID,0,VALID,100,VALID,0.0509425,VALID,19.546,VALID,234,VALID,0.779297,
1999-09-21, 01:53:00,VALID,0,VALID,100,VALID,0.0339617,VALID,19.5226,VALID,209,VALID,0.934696,
1999-09-21, 01:54:00,VALID,0,VALID,100,VALID,0.0849042,VALID,19.5,VALID,198,VALID,0.299959,
1999-09-21, 01:55:00,VALID,0,VALID,100,VALID,0.0679233,VALID,19.4967,VALID,225,VALID,0.467949,
1999-09-21, 01:56:00,VALID,0,VALID,100,VALID,0.0679233,VALID,19.497,VALID,216,VALID,0.646267,
1999-09-21, 01:57:00,VALID,0,VALID,100,VALID,0.0849042,VALID,19.5067,VALID,176,VALID,0.568945,
1999-09-21, 01:58:00,VALID,0,VALID,100,VALID,0.0169808,VALID,19.5171,VALID,213,VALID,0.55957,
1999-09-21, 01:59:01,VALID,0,VALID,100,VALID,0.0509425,VALID,19.4967,VALID,212,VALID,0.277344,
1999-09-21, 02:00:00,VALID,0,VALID,100,VALID,0.0339617,VALID,19.5164,VALID,205,VALID,0.39171,
1999-09-21, 02:01:01,VALID,0,VALID,100,VALID,0.0169808,VALID,19.5198,VALID,189,VALID,0.150391,
1999-09-21, 02:02:00,VALID,0,VALID,100,VALID,0.0339617,VALID,19.5333,VALID,238,VALID,0.302837,
1999-09-21, 02:03:00,VALID,0,VALID,100,VALID,0.0849042,VALID,19.5422,VALID,243,VALID,0.315789,
1999-09-21, 02:04:00,VALID,0,VALID,100,VALID,0.0339617,VALID,19.5651,VALID,255,VALID,0.269426,
1999-09-21, 02:05:00,VALID,0,VALID,100,VALID,0.0339617,VALID,19.578,VALID,309,VALID,0.68935,
1999-09-21, 02:06:00,VALID,0,VALID,100,VALID,0.0849042,VALID,19.5713,VALID,326,VALID,0.831209,
1999-09-21, 02:07:00,VALID,0,VALID,100,VALID,0.0849042,VALID,19.5649,VALID,313,VALID,0.711523,
1999-09-21, 02:08:00,VALID,0,VALID,100,VALID,0.0169808,VALID,19.5519,VALID,264,VALID,0.624199,
1999-09-21, 02:09:00,VALID,0,VALID,100,VALID,0.0169808,VALID,19.5293,VALID,238,VALID,0.6581,
1999-09-21, 02:10:01,VALID,0,VALID,100,VALID,0.0339617,VALID,19.4967,VALID,257,VALID,0.919872,
1999-09-21, 02:11:00,VALID,0,VALID,100,VALID,0.0339617,VALID,19.4905,VALID,280,VALID,0.690104,
1999-09-21, 02:12:00,VALID,0,VALID,100,VALID,0.0679233,VALID,19.4843,VALID,284,VALID,0.179297,
1999-09-21, 02:13:00,VALID,0,VALID,100,VALID,0.0509425,VALID,19.4709,VALID,280,VALID,0.171484,
1999-09-21, 02:14:00,VALID,0,VALID,100,VALID,0.0849042,VALID,19.4676,VALID,286,VALID,0.237459,
1999-09-21, 02:15:00,VALID,0,VALID,100,VALID,0.0339617,VALID,19.4579,VALID,287,VALID,0,
1999-09-21, 02:16:00,VALID,0,VALID,100,VALID,0.0849042,VALID,19.4579,VALID,287,VALID,0,
1999-09-21, 02:17:00,VALID,0,VALID,100,VALID,0.0679233,VALID,19.4843,VALID,287,VALID,0,
1999-09-21, 02:18:00,VALID,0,VALID,100,VALID,0.0339617,VALID,19.5009,VALID,287,VALID,0,
1999-09-21, 02:19:00,VALID,0,VALID,100,VALID,0.0339617,VALID,19.4977,VALID,287,VALID,0,
1999-09-21, 02:20:00,VALID,0,VALID,100,VALID,0,VALID,19.4912,VALID,288,VALID,0,
1999-09-21, 02:21:00,VALID,0,VALID,100,VALID,0.0169808,VALID,19.4487,VALID,288,VALID,0,
1999-09-21, 02:22:00,VALID,0,VALID,100,VALID,0.0169808,VALID,19.4328,VALID,283,VALID,0,
1999-09-21, 02:23:00,VALID,0,VALID,100,VALID,0,VALID,19.4164,VALID,284,VALID,0.128606,
1999-09-21, 02:24:00,VALID,0,VALID,100,VALID,0.0339617,VALID,19.4005,VALID,271,VALID,0.440789,
1999-09-21, 02:25:00,VALID,0,VALID,100,VALID,0.0169808,VALID,19.4039,VALID,248,VALID,0.586939,
1999-09-21, 02:26:00,VALID,0,VALID,100,VALID,0.0679233,VALID,19.3771,VALID,243,VALID,0.47895,
1999-09-21, 02:27:00,VALID,0,VALID,100,VALID,0.0339617,VALID,19.3709,VALID,238,VALID,0.196094,
1999-09-21, 02:28:00,VALID,0,VALID,100,VALID,0.0339617,VALID,19.3612,VALID,183,VALID,0.444922,
1999-09-21, 02:29:00,VALID,0,VALID,100,VALID,0,VALID,19.3617,VALID,155,VALID,0.620271,
1999-09-21, 02:30:00,VALID,0,VALID,100,VALID,0.0849042,VALID,19.3584,VALID,138,VALID,0.946398,
1999-09-21, 02:31:00,VALID,0,VALID,100,VALID,0.0509425,VALID,19.3482,VALID,132,VALID,1.03559,
1999-09-21, 02:32:00,VALID,0,VALID,100,VALID,0.0509425,VALID,19.3552,VALID,144,VALID,0.842105,
1999-09-21, 02:33:01,VALID,0,VALID,100,VALID,0.0509425,VALID,19.3159,VALID,138,VALID,0.879523,
1999-09-21, 02:34:00,VALID,0,VALID,100,VALID,0.0339617,VALID,19.2908,VALID,136,VALID,0.960093,
1999-09-21, 02:35:00,VALID,0,VALID,100,VALID,0.0509425,VALID,19.2647,VALID,145,VALID,0.778577,
1999-09-21, 02:36:00,VALID,0,VALID,100,VALID,0.0509425,VALID,19.2487,VALID,153,VALID,0.63199,
1999-09-21, 02:37:00,VALID,0,VALID,100,VALID,0.0509425,VALID,19.252,VALID,172,VALID,0.0658203,
1999-09-21, 02:38:00,VALID,0,VALID,100,VALID,0.0509425,VALID,19.2296,VALID,156,VALID,0,
1999-09-21, 02:39:00,VALID,0,VALID,100,VALID,0.0169808,VALID,19.2318,VALID,134,VALID,0,
1999-09-21, 02:40:00,VALID,0,VALID,100,VALID,0.0339617,VALID,19.2455,VALID,122,VALID,0,
1999-09-21, 02:41:00,VALID,0,VALID,100,VALID,0.0509425,VALID,19.2194,VALID,111,VALID,0,
1999-09-21, 02:42:00,VALID,0,VALID,100,VALID,0.0509425,VALID,19.2385,VALID,93,VALID,0,
1999-09-21, 02:43:01,VALID,0,VALID,100,VALID,0.0169808,VALID,19.2522,VALID,85,VALID,0,
1999-09-21, 02:44:01,VALID,0,VALID,100,VALID,-0.101885,VALID,19.2566,VALID,93,VALID,0.0787418,
1999-09-21, 02:45:00,VALID,0,VALID,100,VALID,-0.0849042,VALID,19.2728,VALID,101,VALID,0.00260417,
1999-09-21, 02:46:00,VALID,0,VALID,100,VALID,-0.0849042,VALID,19.289,VALID,101,VALID,0,
1999-09-21, 02:47:00,VALID,0,VALID,100,VALID,-0.0509425,VALID,19.2887,VALID,3,VALID,0.321752,
1999-09-21, 02:48:00,VALID,0,VALID,100,VALID,-0.0679233,VALID,19.3054,VALID,312,VALID,0.239104,
1999-09-21, 02:49:00,VALID,0,VALID,100,VALID,-0.101885,VALID,19.3114,VALID,309,VALID,0.207559,
1999-09-21, 02:50:00,VALID,0,VALID,100,VALID,-0.0339617,VALID,19.3347,VALID,309,VALID,0.0563322,
1999-09-21, 02:51:00,VALID,0,VALID,100,VALID,-0.0849042,VALID,19.3566,VALID,310,VALID,0.167558,
1999-09-21, 02:52:00,VALID,0,VALID,100,VALID,-0.0849042,VALID,19.3731,VALID,74,VALID,0.327539,
1999-09-21, 02:53:00,VALID,0,VALID,100,VALID,-0.101885,VALID,19.3663,VALID,103,VALID,0.00701122,
1999-09-21, 02:54:00,VALID,0,VALID,100,VALID,-0.101885,VALID,19.383,VALID,103,VALID,0,
1999-09-21, 02:55:01,VALID,0,VALID,100,VALID,-0.101885,VALID,19.3962,VALID,103,VALID,0,
1999-09-21, 02:56:00,VALID,0,VALID,100,VALID,-0.0679233,VALID,19.4024,VALID,103,VALID,0,
1999-09-21, 02:57:00,VALID,0,VALID,100,VALID,-0.0679233,VALID,19.4283,VALID,103,VALID,0.0529726,
1999-09-21, 02:58:00,VALID,0,VALID,100,VALID,-0.0509425,VALID,19.4216,VALID,102,VALID,0.350586,
1999-09-21, 02:59:00,VALID,0,VALID,100,VALID,-0.0849042,VALID,19.4546,VALID,95,VALID,0.579153,
1999-09-21, 03:00:00,VALID,0,VALID,100,VALID,-0.101885,VALID,19.4671,VALID,100,VALID,0.667318,
1999-09-21, 03:01:00,VALID,0,VALID,100,VALID,-0.0849042,VALID,19.4676,VALID,104,VALID,0.326823,
1999-09-21, 03:02:00,VALID,0,VALID,100,VALID,-0.0849042,VALID,19.4668,VALID,107,VALID,0.22574,
1999-09-21, 03:03:00,VALID,0,VALID,100,VALID,-0.0849042,VALID,19.4833,VALID,107,VALID,0,
1999-09-21, 03:04:00,VALID,0,VALID,100,VALID,-0.0509425,VALID,19.5027,VALID,109,VALID,0,
1999-09-21, 03:05:01,VALID,0,VALID,100,VALID,-0.101885,VALID,19.4828,VALID,130,VALID,0.0442023,
1999-09-21, 03:06:00,VALID,0,VALID,100,VALID,-0.0849042,VALID,19.4768,VALID,142,VALID,0,
1999-09-21, 03:07:00,VALID,0,VALID,100,VALID,-0.101885,VALID,19.4668,VALID,143,VALID,0,
1999-09-21, 03:08:00,VALID,0,VALID,100,VALID,-0.0849042,VALID,19.4765,VALID,149,VALID,0,
1999-09-21, 03:09:00,VALID,0,VALID,100,VALID,-0.0849042,VALID,19.4805,VALID,172,VALID,0,
1999-09-21, 03:10:00,VALID,0,VALID,100,VALID,-0.0509425,VALID,19.4736,VALID,172,VALID,0,
1999-09-21, 03:11:00,VALID,0,VALID,100,VALID,-0.101885,VALID,19.4636,VALID,231,VALID,0.158637,
1999-09-21, 03:12:00,VALID,0,VALID,100,VALID,-0.0679233,VALID,19.4606,VALID,285,VALID,0.417773,
1999-09-21, 03:13:00,VALID,0,VALID,100,VALID,-0.0169808,VALID,19.431,VALID,294,VALID,0.523828,
1999-09-21, 03:14:00,VALID,0,VALID,100,VALID,0.0339617,VALID,19.4069,VALID,299,VALID,0.415707,
1999-09-21, 03:15:00,VALID,0,VALID,100,VALID,0.0509425,VALID,19.3977,VALID,299,VALID,0.255859,
1999-09-21, 03:16:00,VALID,0,VALID,100,VALID,0.0339617,VALID,19.3815,VALID,299,VALID,0.184462,
1999-09-21, 03:17:00,VALID,0,VALID,100,VALID,0.0339617,VALID,19.3977,VALID,298,VALID,0.139186,
1999-09-21, 03:18:00,VALID,0,VALID,100,VALID,0.0169808,VALID,19.4106,VALID,296,VALID,0,
1999-09-21, 03:19:00,VALID,0,VALID,100,VALID,0.0339617,VALID,19.4002,VALID,291,VALID,0,
1999-09-21, 03:20:00,VALID,0,VALID,100,VALID,0.0339617,VALID,19.397,VALID,287,VALID,0,
1999-09-21, 03:21:00,VALID,0,VALID,100,VALID,0.0339617,VALID,19.3975,VALID,286,VALID,0,
1999-09-21, 03:22:00,VALID,0,VALID,100,VALID,0.0169808,VALID,19.4171,VALID,286,VALID,0,
1999-09-21, 03:23:00,VALID,0,VALID,100,VALID,0,VALID,19.4099,VALID,286,VALID,0,
1999-09-21, 03:24:00,VALID,0,VALID,100,VALID,0.0339617,VALID,19.4196,VALID,283,VALID,0,
1999-09-21, 03:25:00,VALID,0,VALID,100,VALID,0.0339617,VALID,19.4266,VALID,268,VALID,0,
1999-09-21, 03:26:00,VALID,0,VALID,100,VALID,0.0169808,VALID,19.4236,VALID,303,VALID,0,
1999-09-21, 03:27:01,VALID,0,VALID,100,VALID,0.0509425,VALID,19.3741,VALID,311,VALID,0,
1999-09-21, 03:28:01,VALID,0,VALID,100,VALID,0.0509425,VALID,19.3746,VALID,308,VALID,0.00800781,
1999-09-21, 03:29:00,VALID,0,VALID,100,VALID,0.0339617,VALID,19.3815,VALID,273,VALID,0.464021,
1999-09-21, 03:30:00,VALID,0,VALID,100,VALID,0,VALID,19.3813,VALID,301,VALID,0.51454,
1999-09-21, 03:31:00,VALID,0,VALID,100,VALID,0.0169808,VALID,19.3947,VALID,303,VALID,0.493924,
1999-09-21, 03:32:00,VALID,0,VALID,100,VALID,0.0509425,VALID,19.3813,VALID,296,VALID,0.405222,
1999-09-21, 03:33:00,VALID,0,VALID,100,VALID,0,VALID,19.3813,VALID,307,VALID,0.463405,
1999-09-21, 03:34:00,VALID,0,VALID,100,VALID,0.0509425,VALID,19.3811,VALID,316,VALID,0.354307,
1999-09-21, 03:35:00,VALID,0,VALID,100,VALID,0.0509425,VALID,19.388,VALID,303,VALID,0.44449,
1999-09-21, 03:36:00,VALID,0,VALID,100,VALID,0.0339617,VALID,19.3716,VALID,307,VALID,0.36102,
1999-09-21, 03:37:00,VALID,0,VALID,100,VALID,0.0509425,VALID,19.3679,VALID,312,VALID,0.342969,
1999-09-21, 03:38:00,VALID,0,VALID,100,VALID,0.0169808,VALID,19.3714,VALID,310,VALID,0.407051,
1999-09-21, 03:39:01,VALID,0,VALID,100,VALID,0.0169808,VALID,19.3751,VALID,311,VALID,0.280428,
1999-09-21, 03:40:00,VALID,0,VALID,100,VALID,0.0169808,VALID,19.3815,VALID,307,VALID,0.128205,
1999-09-21, 03:41:00,VALID,0,VALID,100,VALID,0,VALID,19.3947,VALID,306,VALID,0.0141059,
1999-09-21, 03:42:00,VALID,0,VALID,100,VALID,0.0169808,VALID,19.4241,VALID,306,VALID,0,
1999-09-21, 03:43:00,VALID,0,VALID,100,VALID,0,VALID,19.4462,VALID,330,VALID,0.0203125,
1999-09-21, 03:44:00,VALID,0,VALID,100,VALID,0,VALID,19.4691,VALID,104,VALID,0.46875,
1999-09-21, 03:45:00,VALID,0,VALID,100,VALID,0,VALID,19.5141,VALID,100,VALID,0.410156,
1999-09-21, 03:46:00,VALID,0,VALID,100,VALID,0.0169808,VALID,19.54,VALID,101,VALID,0.295573,
1999-09-21, 03:47:00,VALID,0,VALID,100,VALID,0.0339617,VALID,19.5594,VALID,109,VALID,0.390625,
1999-09-21, 03:48:00,VALID,0,VALID,100,VALID,0.0169808,VALID,19.5594,VALID,109,VALID,0.318257,
1999-09-21, 03:49:01,VALID,0,VALID,100,VALID,0.0169808,VALID,19.5266,VALID,102,VALID,0.421875,
1999-09-21, 03:50:01,VALID,0,VALID,100,VALID,0.0339617,VALID,19.5497,VALID,109,VALID,0.659334,
1999-09-21, 03:51:00,VALID,0,VALID,100,VALID,0.0339617,VALID,19.5494,VALID,110,VALID,0.671464,
1999-09-21, 03:52:00,VALID,0,VALID,100,VALID,0.0679233,VALID,19.5589,VALID,101,VALID,0.905469,
1999-09-21, 03:53:00,VALID,0,VALID,100,VALID,0.0339617,VALID,19.5557,VALID,105,VALID,0.65645,
1999-09-21, 03:54:00,VALID,0,VALID,100,VALID,0.0679233,VALID,19.5599,VALID,113,VALID,0.538035,
1999-09-21, 03:55:00,VALID,0,VALID,100,VALID,0.0169808,VALID,19.5271,VALID,108,VALID,0.471554,
1999-09-21, 03:56:00,VALID,0,VALID,100,VALID,0.0849042,VALID,19.5201,VALID,106,VALID,0.301432,
1999-09-21, 03:57:00,VALID,0,VALID,100,VALID,0.0339617,VALID,19.5241,VALID,99,VALID,0.234766,
1999-09-21, 03:58:00,VALID,0,VALID,100,VALID,0.0169808,VALID,19.5203,VALID,97,VALID,0,
1999-09-21, 03:59:00,VALID,0,VALID,100,VALID,0.0169808,VALID,19.5171,VALID,113,VALID,0,
1999-09-21, 04:00:00,VALID,0,VALID,100,VALID,0.0169808,VALID,19.5233,VALID,120,VALID,0,
1999-09-21, 04:01:01,VALID,0,VALID,100,VALID,0,VALID,19.5397,VALID,120,VALID,0,
1999-09-21, 04:02:00,VALID,0,VALID,100,VALID,0,VALID,19.533,VALID,120,VALID,0,
1999-09-21, 04:03:00,VALID,0,VALID,100,VALID,0.0169808,VALID,19.5263,VALID,120,VALID,0,
1999-09-21, 04:04:00,VALID,0,VALID,100,VALID,0.0169808,VALID,19.5271,VALID,120,VALID,0,
1999-09-21, 04:05:00,VALID,0,VALID,100,VALID,0.0339617,VALID,19.5106,VALID,120,VALID,0,
1999-09-21, 04:06:00,VALID,0,VALID,100,VALID,0.0339617,VALID,19.5101,VALID,120,VALID,0,
1999-09-21, 04:07:00,VALID,0,VALID,100,VALID,0.0169808,VALID,19.5009,VALID,120,VALID,0,
1999-09-21, 04:08:00,VALID,0,VALID,100,VALID,0.0169808,VALID,19.4882,VALID,108,VALID,0,
1999-09-21, 04:09:00,VALID,0,VALID,100,VALID,0,VALID,19.4659,VALID,91,VALID,0,
1999-09-21, 04:10:00,VALID,0,VALID,100,VALID,0,VALID,19.4656,VALID,102,VALID,0,
1999-09-21, 04:11:00,VALID,0,VALID,100,VALID,0,VALID,19.4785,VALID,111,VALID,0,
1999-09-21, 04:12:01,VALID,0,VALID,100,VALID,0,VALID,19.4693,VALID,107,VALID,0,